NKS1820 KFLL-MKJP

Flight info

Callsign NKS1820
Flight time 1h 27m
Altitude 37000
Route REGAE2 URSUS UP406 BILSI UL795 BOPOL UR625 NEFTU UP525 EMABU UA301 IMADI DCT SAVEM ELSER6
Aircraft A320/M-SDE3FGHIRWY/LB1

Departure

Time 2026-05-04 18:49
Airport Fort Lauderdale Hollywood International Airport (KFLL)

Arrival

Time 2026-05-04 20:16
Airport Norman Manley International Airport (MKJP)
Time Latitude Longitude Altitude Speed Heading
2026-05-04 18:11 26.06881 -80.14254 16 ft 0 kts
2026-05-04 18:36 26.06878 -80.14254 16 ft 2 kts 360°
2026-05-04 18:36 26.06852 -80.14253 16 ft 4 kts 349°
2026-05-04 18:37 26.06828 -80.14244 16 ft 4 kts 317°
2026-05-04 18:37 26.06818 -80.14227 16 ft 0 kts 270°
2026-05-04 18:41 26.06818 -80.14228 16 ft 1 kts 270°
2026-05-04 18:41 26.06818 -80.14245 16 ft 3 kts 270°
2026-05-04 18:42 26.06818 -80.14279 16 ft 5 kts 270°
2026-05-04 18:42 26.06818 -80.14325 16 ft 7 kts 270°
2026-05-04 18:42 26.06818 -80.14384 16 ft 9 kts 270°
2026-05-04 18:42 26.06818 -80.14459 16 ft 11 kts 270°
2026-05-04 18:43 26.06817 -80.14534 15 ft 7 kts 268°
2026-05-04 18:43 26.06793 -80.14584 16 ft 9 kts 219°
2026-05-04 18:43 26.06764 -80.14647 15 ft 10 kts 269°
2026-05-04 18:43 26.06766 -80.14734 15 ft 12 kts 271°
2026-05-04 18:44 26.06767 -80.14835 15 ft 14 kts 271°
2026-05-04 18:44 26.06768 -80.14907 15 ft 13 kts 271°
2026-05-04 18:44 26.06768 -80.15056 16 ft 16 kts 269°
2026-05-04 18:44 26.06767 -80.15183 16 ft 17 kts 270°
2026-05-04 18:45 26.06768 -80.15325 16 ft 19 kts 271°
2026-05-04 18:45 26.06769 -80.15484 16 ft 21 kts 268°
2026-05-04 18:45 26.06701 -80.15566 16 ft 15 kts 240°
2026-05-04 18:45 26.06698 -80.15689 16 ft 17 kts 272°
2026-05-04 18:46 26.06685 -80.15805 16 ft 0 kts 233°
2026-05-04 18:47 26.06684 -80.15805 16 ft 1 kts 233°
2026-05-04 18:47 26.06663 -80.15821 16 ft 6 kts 198°
2026-05-04 18:47 26.06610 -80.15822 17 ft 8 kts 174°
2026-05-04 18:48 26.06588 -80.15781 19 ft 1 kts 88°
2026-05-04 18:49 26.06590 -80.15697 21 ft 42 kts 89°
2026-05-04 18:49 26.06587 -80.15098 20 ft 110 kts 90°
2026-05-04 18:49 26.06579 -80.14055 94 ft 155 kts 91°
2026-05-04 18:49 26.06571 -80.12847 726 ft 157 kts 89°
2026-05-04 18:50 26.06588 -80.11611 1303 ft 167 kts 89°
2026-05-04 18:50 26.06580 -80.10254 1654 ft 183 kts 91°
2026-05-04 18:50 26.06556 -80.08786 2032 ft 199 kts 90°
2026-05-04 18:50 26.06539 -80.07163 2429 ft 220 kts 89°
2026-05-04 18:51 26.06553 -80.05389 2916 ft 239 kts 87°
2026-05-04 18:51 26.06600 -80.03521 3535 ft 252 kts 86°
2026-05-04 18:51 26.06654 -80.01507 4391 ft 258 kts 87°
2026-05-04 18:51 26.06693 -79.99478 5187 ft 265 kts 88°
2026-05-04 18:52 26.06700 -79.97396 5952 ft 273 kts 89°
2026-05-04 18:52 26.06687 -79.95292 6709 ft 279 kts 90°
2026-05-04 18:52 26.06663 -79.93119 7472 ft 284 kts 90°
2026-05-04 18:52 26.06636 -79.90895 8185 ft 291 kts 90°
2026-05-04 18:53 26.06612 -79.88624 8857 ft 297 kts 90°
2026-05-04 18:53 26.06587 -79.86301 9500 ft 304 kts 91°
2026-05-04 18:53 26.06561 -79.83928 10162 ft 309 kts 92°
2026-05-04 18:53 26.06339 -79.81491 10464 ft 328 kts 101°
2026-05-04 18:54 26.05933 -79.78890 10614 ft 351 kts 101°
2026-05-04 18:54 26.05496 -79.76156 10974 ft 364 kts 102°
2026-05-04 18:54 26.05050 -79.73371 11004 ft 367 kts 102°
2026-05-04 18:54 26.04606 -79.70584 10982 ft 361 kts 102°
2026-05-04 18:55 26.04186 -79.67910 10741 ft 352 kts 101°
2026-05-04 18:55 26.03194 -79.62687 10242 ft 341 kts 107°
2026-05-04 18:55 26.02580 -79.60152 9990 ft 338 kts 107°
2026-05-04 18:56 26.01978 -79.57650 9743 ft 332 kts 106°
2026-05-04 18:56 26.01377 -79.55241 10022 ft 318 kts 111°
2026-05-04 18:56 26.00457 -79.52962 10440 ft 330 kts 123°
2026-05-04 18:56 25.99088 -79.50885 11002 ft 336 kts 135°
2026-05-04 18:57 25.97341 -79.49147 11689 ft 337 kts 148°
2026-05-04 18:57 25.95326 -79.47849 12394 ft 335 kts 161°
2026-05-04 18:57 25.93127 -79.47044 13076 ft 332 kts 173°
2026-05-04 18:57 25.90851 -79.46561 13717 ft 335 kts 174°
2026-05-04 18:58 25.88550 -79.46078 14331 ft 339 kts 174°
2026-05-04 18:58 25.86214 -79.45799 14917 ft 337 kts 185°
2026-05-04 18:58 25.83890 -79.46038 15499 ft 335 kts 197°
2026-05-04 18:58 25.81672 -79.46779 16075 ft 332 kts 207°
2026-05-04 18:59 25.79643 -79.47973 16625 ft 330 kts 217°
2026-05-04 18:59 25.77717 -79.49383 17183 ft 333 kts 218°
2026-05-04 18:59 25.76429 -79.50321 17555 ft 335 kts 218°
2026-05-04 18:59 25.73806 -79.52216 18298 ft 338 kts 218°
2026-05-04 19:00 25.71828 -79.53644 18830 ft 341 kts 218°
2026-05-04 19:00 25.70507 -79.54598 19176 ft 343 kts 218°
2026-05-04 19:00 25.68501 -79.56050 19689 ft 345 kts 218°
2026-05-04 19:00 25.65964 -79.58178 20335 ft 347 kts 222°
2026-05-04 19:01 25.64060 -79.59849 20800 ft 350 kts 222°
2026-05-04 19:01 25.62771 -79.60980 21121 ft 352 kts 222°
2026-05-04 19:01 25.60187 -79.63246 21736 ft 355 kts 222°
2026-05-04 19:01 25.58269 -79.64927 22171 ft 358 kts 222°
2026-05-04 19:02 25.56943 -79.66089 22463 ft 359 kts 222°
2026-05-04 19:02 25.54976 -79.67812 22875 ft 362 kts 222°
2026-05-04 19:02 25.52989 -79.69549 23293 ft 365 kts 222°
2026-05-04 19:02 25.50986 -79.71302 23543 ft 372 kts 222°
2026-05-04 19:03 25.48928 -79.73107 23672 ft 382 kts 222°
2026-05-04 19:03 25.46815 -79.74958 23834 ft 391 kts 222°
2026-05-04 19:03 25.44694 -79.76807 24128 ft 395 kts 222°
2026-05-04 19:03 25.42499 -79.78717 24482 ft 398 kts 222°
2026-05-04 19:04 25.40339 -79.80580 24836 ft 401 kts 219°
2026-05-04 19:04 25.37905 -79.82134 25194 ft 410 kts 208°
2026-05-04 19:04 25.35151 -79.83075 25550 ft 420 kts 195°
2026-05-04 19:04 25.32201 -79.83300 25878 ft 433 kts 182°
2026-05-04 19:05 25.29192 -79.82742 26212 ft 445 kts 170°
2026-05-04 19:05 25.26207 -79.81780 26531 ft 448 kts 169°
2026-05-04 19:05 25.23208 -79.80814 26844 ft 450 kts 169°
2026-05-04 19:05 25.20190 -79.79845 27155 ft 453 kts 169°
2026-05-04 19:06 25.17150 -79.78873 27457 ft 456 kts 170°
2026-05-04 19:06 25.14092 -79.77896 27795 ft 458 kts 170°
2026-05-04 19:06 25.11022 -79.76919 28115 ft 461 kts 170°
2026-05-04 19:06 25.07933 -79.75937 28440 ft 463 kts 170°
2026-05-04 19:07 25.04827 -79.74948 28764 ft 466 kts 170°
2026-05-04 19:07 25.01699 -79.73952 29059 ft 469 kts 170°
2026-05-04 19:07 24.98566 -79.72951 29353 ft 471 kts 170°
2026-05-04 19:07 24.95410 -79.71944 29657 ft 473 kts 170°
2026-05-04 19:08 24.92237 -79.70936 30001 ft 474 kts 170°
2026-05-04 19:08 24.89122 -79.69695 30420 ft 481 kts 161°
2026-05-04 19:08 24.86163 -79.67926 30851 ft 486 kts 153°
2026-05-04 19:08 24.83321 -79.65908 31296 ft 485 kts 153°
2026-05-04 19:09 24.80500 -79.63904 31795 ft 482 kts 153°
2026-05-04 19:09 24.77679 -79.61904 32288 ft 480 kts 153°
2026-05-04 19:09 24.74917 -79.59954 32760 ft 477 kts 153°
2026-05-04 19:09 24.72124 -79.57991 33222 ft 475 kts 154°
2026-05-04 19:10 24.69348 -79.56041 33693 ft 472 kts 154°
2026-05-04 19:10 24.66586 -79.54101 34135 ft 470 kts 154°
2026-05-04 19:10 24.63833 -79.52171 34555 ft 468 kts 154°
2026-05-04 19:10 24.61087 -79.50249 34921 ft 467 kts 155°
2026-05-04 19:11 24.58344 -79.48332 35227 ft 467 kts 155°
2026-05-04 19:11 24.55604 -79.46416 35498 ft 468 kts 155°
2026-05-04 19:11 24.52865 -79.44496 35819 ft 468 kts 155°
2026-05-04 19:11 24.50122 -79.42570 36100 ft 467 kts 155°
2026-05-04 19:12 24.47376 -79.40640 36363 ft 467 kts 156°
2026-05-04 19:12 24.41889 -79.36800 36860 ft 468 kts 156°
2026-05-04 19:12 24.39148 -79.34885 37012 ft 466 kts 156°
2026-05-04 19:13 24.36402 -79.32972 37041 ft 468 kts 156°
2026-05-04 19:13 24.30895 -79.29138 37035 ft 470 kts 156°
2026-05-04 19:14 24.25422 -79.25258 37033 ft 471 kts 155°
2026-05-04 19:14 24.19957 -79.21294 37034 ft 471 kts 155°
2026-05-04 19:15 24.14490 -79.17342 37033 ft 470 kts 156°
2026-05-04 19:15 24.09017 -79.13432 37041 ft 470 kts 156°
2026-05-04 19:16 24.03534 -79.09526 37045 ft 469 kts 158°
2026-05-04 19:16 24.00684 -79.07846 37043 ft 458 kts 166°
2026-05-04 19:16 23.97739 -79.06657 37043 ft 447 kts 174°
2026-05-04 19:17 23.91738 -79.05339 37044 ft 439 kts 179°
2026-05-04 19:17 23.85763 -79.04160 37044 ft 439 kts 179°
2026-05-04 19:18 23.79748 -79.02972 37041 ft 440 kts 179°
2026-05-04 19:18 23.73719 -79.01777 37044 ft 440 kts 179°
2026-05-04 19:19 23.67697 -79.00578 37047 ft 440 kts 179°
2026-05-04 19:19 23.61667 -78.99384 37043 ft 440 kts 179°
2026-05-04 19:20 23.55638 -78.98204 37041 ft 440 kts 179°
2026-05-04 19:20 23.49604 -78.97027 37039 ft 440 kts 179°
2026-05-04 19:21 23.43574 -78.95832 37039 ft 440 kts 179°
2026-05-04 19:21 23.37586 -78.94650 37040 ft 441 kts 179°
2026-05-04 19:22 23.31543 -78.93457 37040 ft 441 kts 179°
2026-05-04 19:22 23.25510 -78.92274 37043 ft 440 kts 179°
2026-05-04 19:23 23.19534 -78.90475 37036 ft 458 kts 164°
2026-05-04 19:23 23.16720 -78.88788 37041 ft 469 kts 154°
2026-05-04 19:23 23.14086 -78.86648 37032 ft 474 kts 150°
2026-05-04 19:24 23.08889 -78.82306 37029 ft 474 kts 151°
2026-05-04 19:24 23.03644 -78.77960 37039 ft 473 kts 151°
2026-05-04 19:25 22.98400 -78.73627 37039 ft 473 kts 151°
2026-05-04 19:25 22.93167 -78.69292 37036 ft 473 kts 150°
2026-05-04 19:26 22.87936 -78.64954 37036 ft 473 kts 150°
2026-05-04 19:26 22.82734 -78.60660 37033 ft 473 kts 151°
2026-05-04 19:27 22.77482 -78.56332 37033 ft 473 kts 150°
2026-05-04 19:27 22.72275 -78.52014 37033 ft 473 kts 150°
2026-05-04 19:28 22.67063 -78.47663 37040 ft 473 kts 150°
2026-05-04 19:28 22.61848 -78.43324 37035 ft 473 kts 150°
2026-05-04 19:29 22.56623 -78.38988 37031 ft 473 kts 150°
2026-05-04 19:29 22.51408 -78.34657 37036 ft 473 kts 150°
2026-05-04 19:30 22.46194 -78.30314 37030 ft 473 kts 150°
2026-05-04 19:30 22.40987 -78.25963 37031 ft 473 kts 150°
2026-05-04 19:31 22.35775 -78.21623 37039 ft 473 kts 150°
2026-05-04 19:31 22.30562 -78.17287 37035 ft 473 kts 150°
2026-05-04 19:32 22.25344 -78.12947 37026 ft 473 kts 149°
2026-05-04 19:32 22.20133 -78.08620 37025 ft 473 kts 150°
2026-05-04 19:33 22.14952 -78.04331 37020 ft 473 kts 150°
2026-05-04 19:33 22.09737 -78.00011 37020 ft 473 kts 150°
2026-05-04 19:34 22.04520 -77.95690 37021 ft 472 kts 150°
2026-05-04 19:34 21.99309 -77.91377 37022 ft 473 kts 150°
2026-05-04 19:35 21.94091 -77.87065 37023 ft 473 kts 150°
2026-05-04 19:35 21.88867 -77.82752 37024 ft 473 kts 150°
2026-05-04 19:36 21.83636 -77.78459 37026 ft 472 kts 150°
2026-05-04 19:36 21.78406 -77.74189 37024 ft 472 kts 150°
2026-05-04 19:37 21.73174 -77.69924 37021 ft 472 kts 150°
2026-05-04 19:37 21.67950 -77.65662 37019 ft 471 kts 150°
2026-05-04 19:38 21.62727 -77.61400 37015 ft 471 kts 150°
2026-05-04 19:38 21.57495 -77.57133 37012 ft 472 kts 149°
2026-05-04 19:39 21.52294 -77.52906 37012 ft 472 kts 149°
2026-05-04 19:39 21.47056 -77.48649 37015 ft 472 kts 149°
2026-05-04 19:40 21.41671 -77.44726 37014 ft 461 kts 161°
2026-05-04 19:40 21.35710 -77.42649 37013 ft 442 kts 179°
2026-05-04 19:41 21.29672 -77.42442 37010 ft 431 kts 189°
2026-05-04 19:41 21.23661 -77.42627 37005 ft 433 kts 188°
2026-05-04 19:42 21.17674 -77.42800 37004 ft 433 kts 188°
2026-05-04 19:42 21.11651 -77.42979 37006 ft 434 kts 188°
2026-05-04 19:43 21.05614 -77.43158 37005 ft 434 kts 188°
2026-05-04 19:43 20.99576 -77.43342 37005 ft 434 kts 188°
2026-05-04 19:44 20.93533 -77.43529 37006 ft 434 kts 188°
2026-05-04 19:44 20.87486 -77.43713 37006 ft 435 kts 188°
2026-05-04 19:45 20.81431 -77.43900 37009 ft 435 kts 188°
2026-05-04 19:45 20.75368 -77.44079 37012 ft 435 kts 188°
2026-05-04 19:46 20.69319 -77.44259 37012 ft 436 kts 188°
2026-05-04 19:46 20.63251 -77.44442 37008 ft 436 kts 188°
2026-05-04 19:47 20.57211 -77.44628 37007 ft 436 kts 188°
2026-05-04 19:47 20.51133 -77.44805 37007 ft 437 kts 187°
2026-05-04 19:48 20.45043 -77.44955 37008 ft 438 kts 187°
2026-05-04 19:48 20.38953 -77.45104 37010 ft 438 kts 187°
2026-05-04 19:49 20.32862 -77.45260 37012 ft 438 kts 187°
2026-05-04 19:49 20.26766 -77.45414 37012 ft 438 kts 187°
2026-05-04 19:50 20.20677 -77.45569 37012 ft 438 kts 187°
2026-05-04 19:50 20.14585 -77.45728 37009 ft 438 kts 187°
2026-05-04 19:51 20.08489 -77.45886 37009 ft 438 kts 187°
2026-05-04 19:51 20.02429 -77.46034 37011 ft 438 kts 187°
2026-05-04 19:52 19.96325 -77.46191 37012 ft 439 kts 187°
2026-05-04 19:52 19.91249 -77.46326 37011 ft 439 kts 187°
2026-05-04 19:53 19.85141 -77.46476 37013 ft 439 kts 187°
2026-05-04 19:53 19.79030 -77.46632 37014 ft 439 kts 187°
2026-05-04 19:54 19.72925 -77.46795 36908 ft 440 kts 187°
2026-05-04 19:54 19.69870 -77.46873 36676 ft 439 kts 187°
2026-05-04 19:54 19.66817 -77.46949 36419 ft 438 kts 187°
2026-05-04 19:54 19.63768 -77.47023 36169 ft 439 kts 187°
2026-05-04 19:55 19.60698 -77.47096 35919 ft 442 kts 186°
2026-05-04 19:55 19.57608 -77.47173 35675 ft 446 kts 186°
2026-05-04 19:55 19.54497 -77.47254 35387 ft 447 kts 186°
2026-05-04 19:55 19.51369 -77.47298 34618 ft 453 kts 182°
2026-05-04 19:56 19.48210 -77.46916 33789 ft 463 kts 173°
2026-05-04 19:56 19.45075 -77.45975 32980 ft 472 kts 164°
2026-05-04 19:56 19.41999 -77.44811 32507 ft 467 kts 165°
2026-05-04 19:56 19.38934 -77.43677 31928 ft 464 kts 165°
2026-05-04 19:57 19.35887 -77.42570 31362 ft 461 kts 165°
2026-05-04 19:57 19.32858 -77.41477 30887 ft 456 kts 165°
2026-05-04 19:57 19.29859 -77.40393 30218 ft 456 kts 165°
2026-05-04 19:57 19.26873 -77.39315 29670 ft 452 kts 165°
2026-05-04 19:58 19.23902 -77.38235 29105 ft 449 kts 165°
2026-05-04 19:58 19.20957 -77.37162 28552 ft 445 kts 164°
2026-05-04 19:58 19.18041 -77.36097 28007 ft 442 kts 164°
2026-05-04 19:58 19.15156 -77.35043 27469 ft 438 kts 164°
2026-05-04 19:59 19.12285 -77.33998 26936 ft 434 kts 163°
2026-05-04 19:59 19.09439 -77.32963 26424 ft 431 kts 163°
2026-05-04 19:59 19.06644 -77.31947 25930 ft 428 kts 163°
2026-05-04 19:59 19.03837 -77.30926 25439 ft 425 kts 163°
2026-05-04 20:00 19.01049 -77.29909 24962 ft 423 kts 162°
2026-05-04 20:00 18.98283 -77.28903 24484 ft 420 kts 162°
2026-05-04 20:00 18.95543 -77.27858 24013 ft 418 kts 158°
2026-05-04 20:00 18.92903 -77.26567 23549 ft 416 kts 156°
2026-05-04 20:01 18.90292 -77.25276 23081 ft 413 kts 156°
2026-05-04 20:01 18.87696 -77.23994 22606 ft 410 kts 156°
2026-05-04 20:01 18.85119 -77.22724 22132 ft 407 kts 156°
2026-05-04 20:01 18.82564 -77.21470 21643 ft 405 kts 156°
2026-05-04 20:02 18.80015 -77.20218 21147 ft 402 kts 156°
2026-05-04 20:02 18.77485 -77.18978 20638 ft 400 kts 156°
2026-05-04 20:02 18.74970 -77.17743 20142 ft 397 kts 156°
2026-05-04 20:02 18.72475 -77.16518 19630 ft 394 kts 156°
2026-05-04 20:03 18.69997 -77.15302 19125 ft 392 kts 156°
2026-05-04 20:03 18.67537 -77.14094 18618 ft 389 kts 157°
2026-05-04 20:03 18.65094 -77.12895 18113 ft 386 kts 157°
2026-05-04 20:03 18.62672 -77.11707 17609 ft 382 kts 157°
2026-05-04 20:04 18.60274 -77.10532 17107 ft 379 kts 157°
2026-05-04 20:04 18.57890 -77.09364 16639 ft 375 kts 157°
2026-05-04 20:04 18.55562 -77.08225 16136 ft 372 kts 157°
2026-05-04 20:04 18.53189 -77.07070 15627 ft 370 kts 156°
2026-05-04 20:05 18.50868 -77.05938 15119 ft 367 kts 156°
2026-05-04 20:05 18.48560 -77.04808 14630 ft 364 kts 156°
2026-05-04 20:05 18.46305 -77.03703 14123 ft 361 kts 156°
2026-05-04 20:05 18.44134 -77.02641 13653 ft 358 kts 156°
2026-05-04 20:06 18.41884 -77.01542 13153 ft 355 kts 156°
2026-05-04 20:06 18.39654 -77.00451 12663 ft 352 kts 156°
2026-05-04 20:06 18.37442 -76.99369 12196 ft 350 kts 155°
2026-05-04 20:06 18.35245 -76.98297 11718 ft 347 kts 155°
2026-05-04 20:07 18.33058 -76.97232 11243 ft 344 kts 155°
2026-05-04 20:07 18.30897 -76.96181 10787 ft 341 kts 155°
2026-05-04 20:07 18.28747 -76.95136 10339 ft 339 kts 155°
2026-05-04 20:07 18.26637 -76.94112 10176 ft 327 kts 154°
2026-05-04 20:08 18.24605 -76.93122 10047 ft 317 kts 154°
2026-05-04 20:08 18.22635 -76.92174 9916 ft 307 kts 157°
2026-05-04 20:08 18.20583 -76.91778 9714 ft 301 kts 184°
2026-05-04 20:08 18.18596 -76.92392 9248 ft 301 kts 208°
2026-05-04 20:09 18.16929 -76.93765 8547 ft 312 kts 229°
2026-05-04 20:09 18.15653 -76.95619 7980 ft 313 kts 233°
2026-05-04 20:09 18.14301 -76.97387 7508 ft 310 kts 227°
2026-05-04 20:09 18.12840 -76.99005 7068 ft 306 kts 223°
2026-05-04 20:10 18.11288 -77.00485 6633 ft 296 kts 219°
2026-05-04 20:10 18.09690 -77.01793 6215 ft 286 kts 214°
2026-05-04 20:10 18.08056 -77.02938 5813 ft 282 kts 210°
2026-05-04 20:10 18.06252 -77.03660 5148 ft 285 kts 182°
2026-05-04 20:11 18.04383 -77.03232 4707 ft 271 kts 147°
2026-05-04 20:11 18.03168 -77.01836 4395 ft 256 kts 112°
2026-05-04 20:11 18.02661 -77.00095 4076 ft 244 kts 108°
2026-05-04 20:11 18.02043 -76.98478 3781 ft 233 kts 114°
2026-05-04 20:12 18.01374 -76.96960 3474 ft 224 kts 115°
2026-05-04 20:12 18.00746 -76.95525 3186 ft 207 kts 115°
2026-05-04 20:12 18.00169 -76.94195 2951 ft 194 kts 115°
2026-05-04 20:12 17.99626 -76.92947 2687 ft 182 kts 115°
2026-05-04 20:13 17.99115 -76.91770 2449 ft 173 kts 115°
2026-05-04 20:13 17.98631 -76.90657 2231 ft 161 kts 114°
2026-05-04 20:13 17.98179 -76.89615 2013 ft 152 kts 114°
2026-05-04 20:13 17.97754 -76.88636 1832 ft 142 kts 114°
2026-05-04 20:14 17.97353 -76.87713 1646 ft 136 kts 115°
2026-05-04 20:14 17.96954 -76.86811 1484 ft 136 kts 116°
2026-05-04 20:14 17.96498 -76.85950 1222 ft 135 kts 121°
2026-05-04 20:14 17.96017 -76.85113 924 ft 133 kts 119°
2026-05-04 20:15 17.95606 -76.84246 769 ft 133 kts 112°
2026-05-04 20:15 17.95330 -76.83323 681 ft 133 kts 107°
2026-05-04 20:15 17.95016 -76.82412 563 ft 133 kts 115°
2026-05-04 20:15 17.94618 -76.81540 407 ft 133 kts 115°
2026-05-04 20:16 17.94283 -76.80635 242 ft 133 kts 111°
2026-05-04 20:16 17.93942 -76.79729 56 ft 134 kts 113°
2026-05-04 20:16 17.93629 -76.78930 14 ft 90 kts 112°
2026-05-04 20:16 17.93509 -76.78618 13 ft 7 kts 111°
2026-05-04 20:17 17.93484 -76.78552 13 ft 12 kts 111°
2026-05-04 20:17 17.93453 -76.78467 14 ft 13 kts 111°
2026-05-04 20:17 17.93421 -76.78375 15 ft 14 kts 107°
2026-05-04 20:17 17.93400 -76.78267 16 ft 16 kts 95°
2026-05-04 20:18 17.93409 -76.78148 15 ft 18 kts 80°
2026-05-04 20:18 17.93428 -76.78011 14 ft 19 kts 82°
2026-05-04 20:18 17.93492 -76.77934 14 ft 11 kts 21°
2026-05-04 20:18 17.93556 -76.77909 14 ft 7 kts 21°
2026-05-04 20:19 17.93577 -76.77904 14 ft 1 kts 359°
2026-05-04 20:19 17.93590 -76.77917 14 ft 5 kts 301°
2026-05-04 20:19 17.93601 -76.77951 14 ft 4 kts 290°
2026-05-04 20:19 17.93604 -76.77959 14 ft 0 kts 290°